Regional Weather Roundup
Issued by NWS

Home | Current Version | Previous Version | Graphics & Text | Print | Product List | Glossary On
Versions: 1 2 3 4 5 6 7 8 9 10 11 12 13 14 15 16 17 18 19 20 21 22 23 24 25 26 27 28 29 30 31 32 33 34 35 36 37 38 39 40 41 42 43 44 45 46 47 48 49 50
185
ASUS43 KFSD 230910
RWRSD

WEATHER ROUNDUP FOR SOUTH DAKOTA
NATIONAL WEATHER SERVICE SIOUX FALLS SD
400 AM CDT MON OCT 23 2017

NOTE: "FAIR" INDICATES FEW OR NO CLOUDS BELOW 12,000 FEET WITH NO
SIGNIFICANT WEATHER AND/OR OBSTRUCTIONS TO VISIBILITY.


SDZ001>005-009-010-012>017-231000-
NORTHWEST AND NORTH CENTRAL SOUTH DAKOTA

CITY           SKY/WX    TMP DP  RH WIND       PRES   REMARKS
BUFFALO          N/A     43  32  65 NW21      29.99R
MOBRIDGE       CLEAR     50  38  63 W23G31    29.87R
$$

SDZ012>016-024>037-041>051-057-063-072>074-231000-
SOUTHWEST AND SOUTH CENTRAL SOUTH DAKOTA

CITY           SKY/WX    TMP DP  RH WIND       PRES   REMARKS
RAPID CTY ARPT CLEAR     51  21  30 NW31G45   30.11R
PIERRE         MOCLDY    54  41  61 W21G26    29.96R
CUSTER         CLEAR     41  19  41 NW10G28   30.13R
ELLSWORTH AFB  CLEAR     51  21  31 NW30G39   30.09R
PHILIP         PTCLDY    52  31  44 W13       30.06R
PINE RIDGE     LGT RAIN  50  37  61 NW6       30.15R
SPEARFISH      FAIR      48  21  34 W23G35    30.14R
WINNER         PTSUNNY   56  43  61 NW16      30.00R
$$

SDZ004>011-016>023-039-040-231000-
NORTHEAST SOUTH DAKOTA

CITY           SKY/WX    TMP DP  RH WIND       PRES   REMARKS
ABERDEEN       CLEAR     52  41  66 W21G32    29.81R
WATERTOWN      PTCLDY    53  43  68 W15       29.80R
BROOKINGS      PTCLDY    48  38  68 W8        29.82F
SISSETON         N/A     56  42  59 W20G35    29.73R
$$

SDZ017-020-022-023-036>040-048>070-231000-
SOUTHEAST SOUTH DAKOTA

CITY           SKY/WX    TMP DP  RH WIND       PRES   REMARKS
SIOUX FALLS    CLOUDY    49  36  61 CALM      29.83F
HURON          MOCLDY    55  43  63 W21       29.87R
CHAMBERLAIN    PTCLDY    56  45  66 NW14      29.97R
MITCHELL       CLOUDY    57  42  57 W16       29.89R
YANKTON        CLOUDY    52  36  54 NW18      29.86R
$$

ABBREVIATIONS USED IN REMARKS
   TC - TEMPERATURE IN CELSIUS
  WCI - WIND CHILL INDEX
   HX - HEAT INDEX
  VSB - VISIBILITY





USA.gov is the U.S. government's official web portal to all federal, state and local government web resources and services.